sat.trackr.live / text

‹ back to catalog

STARLINK-4029

NORAD 52685 · 2022-053AF

PAYLOAD ACTIVE UNKNOWN

§ Identity

Operator
Country
US
Launch date
2022-05-18
Launch site
AFETR
Launch vehicle
Mass (kg)
RCS (m²)

Purposes: comms

External: N2YO · Heavens-Above · Gunter

§ Orbital elements

Epoch: 2026-09-19T23:29:29.214240Z

Period
94.37 min
Inclination
53.1616°
Eccentricity
0.0001192
Mean motion
15.25976725 rev/d
Perigee alt
487.0 km
Apogee alt
488.7 km
Semi-major
6,866.0 km
B*
1.7447e-3
RAAN
349.5293°
Arg perigee
83.7113°
Mean anomaly
276.4022°
Rev number
24,047

§ Raw data

STARLINK-40291 52685U 22053AF  26262.97881035  .00045355  00000+0  17447-2 0  99932 52685  53.1616 349.5293 0001192  83.7113 276.4022 15.25976725240470

JSON: /api/v1/satellites/52685 · /tle

For live sub-satellite position, see the globe view (requires WebGL).

§ Visibility from observer

Set your observer location to see the next 7 days of passes ≥ 10°. The values pass through the URL so the page stays shareable.

No JS? Fill the form by hand. The geolocation button needs JavaScript.